GFSNGP_prec_cthk_045.txt.gz
RH
40 49 48 48 48 47 47 48 51 47 44 44 47 45 43 48 44 30 19 27 34 41 42 39 41 45 48 46 49 53 58 61 62 63 62 61 59 57 61 63 65 65 73 74
42 50 47 44 41 40 40 43 44 44 41 44 41 36 37 34 27 23 22 27 36 45 50 49 50 53 53 57 62 66 64 64 62 60 56 58 57 51 49 50 53 57 63 65
51 52 50 51 36 40 40 41 45 46 40 46 42 36 35 32 32 31 27 29 38 42 49 54 60 62 64 68 66 65 60 59 55 49 45 44 42 43 48 51 53 55 62 67
56 55 59 37 38 35 34 34 38 39 39 34 34 34 31 34 35 35 35 35 40 45 49 54 59 62 59 57 56 53 49 46 43 41 39 40 44 45 45 47 51 55 61 64
61 53 41 35 34 36 37 33 35 37 34 33 36 30 27 27 31 30 30 34 37 41 44 50 53 54 53 51 47 44 40 38 36 36 38 40 42 44 48 53 57 58 58 56
56 54 56 36 37 32 34 34 33 40 33 29 24 23 22 30 31 30 32 32 33 33 35 39 43 46 46 44 39 37 34 33 35 38 41 46 49 51 53 52 48 47 48 47
65 64 49 37 37 38 43 24 41 41 28 24 23 20 25 29 30 31 33 35 36 38 41 43 45 44 40 38 35 34 36 39 41 45 47 49 51 50 49 46 45 47 43 45
68 69 67 42 39 38 30 33 46 44 35 27 26 21 24 29 31 32 35 38 40 41 43 43 40 39 36 36 38 40 41 45 47 47 47 49 49 47 46 47 48 47 46 46
63 55 46 41 41 42 39 47 49 45 41 33 30 23 23 28 31 34 36 39 40 42 42 41 39 37 37 40 42 45 47 48 49 51 52 51 49 49 49 48 46 46 46 46
74 63 55 54 49 49 47 44 50 49 45 38 33 27 24 28 32 34 37 38 38 39 39 39 38 39 43 45 47 49 52 55 56 55 53 51 50 48 48 49 47 47 47 45
54 57 62 63 54 56 58 61 60 53 44 42 36 28 25 28 32 36 38 38 39 40 40 41 43 46 49 51 54 56 59 60 59 55 54 54 52 51 48 47 44 40 37 34
52 46 56 59 61 64 65 62 58 53 50 44 38 28 28 31 33 36 39 41 43 44 45 47 51 56 60 62 62 62 63 63 61 58 56 55 55 55 53 49 44 40 37 34
46 44 48 51 57 60 65 64 64 59 57 52 45 38 34 35 36 38 41 46 49 51 54 59 64 68 70 72 71 69 66 59 58 58 62 61 58 59 54 54 47 42 40 38
37 41 44 47 52 61 64 66 65 67 64 62 51 44 42 43 46 49 52 57 59 65 70 73 75 77 77 72 70 66 63 62 66 70 67 64 63 57 57 55 50 49 48 46
41 47 44 46 47 53 59 65 68 67 70 69 64 55 55 56 60 64 66 68 72 75 76 78 81 82 80 78 75 70 69 71 70 68 64 61 58 56 54 54 55 53 52 50
35 49 55 50 56 58 63 69 69 70 71 76 74 70 70 73 76 76 73 74 78 80 83 87 86 88 82 76 73 78 80 74 72 69 67 66 62 58 59 58 58 57 56 53
42 42 47 56 57 60 70 74 76 79 77 80 82 81 80 79 78 77 81 85 87 88 91 95 92 82 86 93 87 84 82 77 75 74 70 65 62 61 60 61 61 61 58 53
57 55 53 50 49 54 65 70 72 79 79 77 85 88 87 85 88 91 95 97 98 97 96 95 96 96 94 88 85 80 79 79 76 72 68 66 63 63 63 65 65 64 59 52
69 71 66 61 62 66 69 71 72 73 75 81 87 90 92 97 98 98 97 97 97 97 97 96 96 90 87 87 85 81 79 76 74 73 69 68 70 72 72 72 70 66 59 54
68 66 64 64 65 67 68 71 75 82 88 92 93 96 98 97 97 97 96 97 97 97 96 96 94 90 88 85 80 77 76 76 76 75 77 75 80 78 76 73 69 65 60 56
78 78 82 83 85 85 87 88 90 96 97 97 97 97 97 97 97 96 96 97 97 97 96 96 91 89 86 82 79 80 82 85 85 84 87 86 84 79 75 71 67 64 61 57
94 97 98 97 98 97 97 98 97 97 97 96 97 97 97 96 96 96 97 97 96 95 93 92 90 87 87 89 92 92 90 92 90 91 89 88 81 74 72 68 64 62 58 55
97 97 97 97 97 96 97 97 97 97 97 97 97 97 97 96 96 97 97 97 96 95 96 94 96 98 97 96 96 94 95 96 95 89 83 78 73 72 69 65 62 59 53 49
96 96 96 96 97 97 96 96 97 97 97 97 97 97 97 96 97 97 97 97 97 98 98 98 97 96 95 94 93 91 87 81 75 72 69 65 63 59 57 56 54 53 51 52
97 96 96 97 97 97 97 97 96 97 97 97 97 97 97 97 97 97 97 98 98 98 96 96 94 91 84 80 73 68 64 61 57 54 52 51 50 50 50 50 50 51 50 50
96 97 97 97 97 97 96 96 97 97 97 97 98 97 97 97 97 98 97 95 93 89 83 74 64 56 51 47 46 45 44 43 43 43 43 43 44 44 45 46 46 47 48 47
97 98 97 96 96 96 96 96 96 96 96 95 93 91 88 83 77 71 64 57 51 45 40 38 37 36 36 37 38 39 40 40 42 42 43 44 46 47 48 48 50 50 48 49

GFSNGP_prec_cthk_048.txt.gz
RH
46 42 51 46 42 46 49 48 51 46 42 42 43 51 42 48 48 46 40 37 30 25 42 40 38 38 39 40 43 52 64 60 55 62 65 68 70 69 65 60 58 60 59 55
53 42 46 58 56 43 40 37 41 43 47 40 42 44 43 39 36 34 35 35 29 21 39 43 43 43 40 43 49 54 52 59 64 64 66 66 60 58 59 58 50 47 50 56
54 45 47 53 55 47 48 44 43 44 44 40 42 46 40 36 36 33 29 30 36 33 44 46 48 48 49 49 55 58 63 68 68 66 64 61 57 49 45 41 43 47 49 53
67 65 63 43 47 45 43 38 38 40 40 43 43 44 40 37 34 32 32 35 36 41 43 53 49 51 54 56 60 66 67 66 65 61 53 47 44 41 40 42 44 46 50 55
72 65 56 46 48 45 39 35 32 33 36 41 42 47 39 34 31 28 27 29 34 36 43 45 49 50 53 57 59 58 58 56 53 48 42 40 36 38 40 42 47 50 56 58
77 67 64 50 41 38 40 41 33 36 37 43 44 45 33 30 23 22 28 31 32 34 36 41 43 46 46 46 51 50 49 48 44 39 35 36 39 43 46 49 49 49 49 49
80 80 62 43 36 40 49 37 36 42 41 43 40 34 25 24 21 22 28 31 31 33 35 37 37 37 40 42 45 47 43 39 36 36 38 42 43 44 46 48 50 48 47 46
86 85 76 49 46 47 39 31 38 40 52 50 41 34 28 26 23 23 27 30 32 35 37 38 40 41 43 44 43 40 38 36 37 39 42 44 45 46 45 47 49 51 52 52
79 69 64 54 55 53 48 47 42 50 52 48 45 40 36 31 29 24 28 32 35 37 38 40 43 45 45 42 40 38 38 39 40 42 45 48 50 49 50 52 54 55 53 50
67 72 68 73 65 57 55 55 51 52 59 61 55 47 44 41 34 28 31 34 37 39 40 41 42 44 44 44 43 41 41 44 46 49 53 55 54 52 55 56 55 54 52 52
55 59 62 64 69 71 65 60 57 58 62 58 53 50 47 43 39 32 33 36 39 40 41 42 42 42 44 45 43 45 48 51 56 60 60 58 58 55 55 56 56 54 54 51
64 59 57 58 73 74 67 56 58 60 61 61 62 57 54 49 46 38 36 39 41 44 45 45 45 46 47 48 50 52 61 67 68 66 67 64 63 61 61 62 62 59 55 51
63 67 66 56 52 56 57 62 64 62 62 62 63 64 63 59 53 50 43 42 46 49 49 47 48 51 53 56 60 69 75 76 75 73 70 66 66 67 70 69 67 61 56 53
34 43 47 51 45 44 48 55 63 64 65 66 64 66 67 67 67 62 55 54 55 55 56 57 60 65 71 74 76 81 78 75 76 73 69 67 72 75 71 70 68 67 65 64
46 40 41 42 46 50 47 50 54 59 64 70 63 68 71 72 73 76 72 66 65 65 67 71 76 79 80 81 81 79 78 82 78 72 76 80 77 73 71 71 71 70 68 66
39 38 41 44 49 49 50 47 47 54 63 67 71 73 74 76 82 84 81 79 77 78 80 83 85 84 82 82 82 86 84 84 89 90 86 81 77 79 78 75 71 68 69 70
48 46 44 43 45 45 48 55 61 66 66 71 75 77 80 81 84 84 86 90 89 87 89 90 87 84 88 93 94 96 97 96 91 85 84 87 84 78 73 70 69 70 72 73
61 58 54 51 51 50 50 49 51 59 66 71 77 81 83 88 94 94 89 95 96 95 94 95 97 97 97 97 97 96 95 89 89 89 87 81 75 73 72 73 75 78 79 78
66 63 60 61 61 62 64 63 62 62 67 74 78 84 94 91 88 93 95 94 95 95 97 97 97 97 97 96 96 96 95 90 87 81 79 79 79 80 81 84 86 83 80 79
72 71 71 68 66 84 89 78 70 70 73 77 78 79 84 85 85 90 95 97 97 96 97 97 97 97 96 97 96 92 88 86 83 84 85 86 86 89 85 87 88 87 83 77
84 78 74 74 71 70 70 72 77 82 83 83 83 88 92 93 97 97 97 97 96 96 97 97 97 97 97 97 94 90 92 94 95 93 94 95 95 95 92 87 84 77 69 67
95 91 86 83 82 82 87 91 94 97 97 97 97 97 96 96 96 96 97 97 97 97 97 97 97 97 97 97 97 97 97 96 96 95 96 95 90 83 79 73 66 63 60 56
97 97 97 97 97 97 97 97 97 96 96 96 96 96 97 96 96 96 96 97 97 97 97 97 97 97 97 97 96 96 96 94 91 87 80 72 66 59 55 53 51 49 48 46
97 97 97 97 97 97 96 97 97 96 96 96 96 96 96 97 97 97 98 97 97 97 97 97 97 96 94 93 90 82 71 61 55 50 45 43 43 43 42 41 40 40 40 41
97 97 96 96 96 96 97 97 96 97 97 97 96 96 97 97 98 98 98 97 97 95 92 88 80 67 58 50 45 41 38 35 34 34 35 36 37 39 40 41 42 42 43 45
97 96 97 97 97 97 97 97 97 97 97 97 96 95 94 91 87 82 75 66 58 51 46 43 39 34 32 31 30 31 32 34 36 37 39 39 39 41 44 46 47 47 48 49
97 97 97 96 96 94 91 89 84 78 72 66 59 54 50 48 44 41 40 36 33 32 30 29 29 30 30 30 31 31 33 35 38 39 41 43 45 47 48 50 50 51 52 53

GFSNGP_prec_cthk_054.txt.gz
RH
56 57 58 55 57 54 53 53 55 46 44 39 53 43 43 46 45 45 44 46 43 39 44 35 38 37 35 31 26 33 41 48 56 54 60 66 68 65 65 65 68 69 71 70
62 59 61 61 54 55 57 58 56 55 49 37 42 44 46 45 46 44 38 38 42 40 39 32 29 25 26 31 28 31 37 45 51 53 62 68 63 67 70 71 73 73 67 62
61 62 61 66 52 56 56 59 59 56 54 50 44 49 44 41 42 39 45 42 40 39 35 31 31 28 25 30 37 40 48 51 50 54 55 59 65 73 72 71 72 67 66 62
75 70 76 37 48 51 52 51 55 52 52 48 48 45 40 39 49 37 39 42 38 41 40 35 32 30 29 28 36 42 44 49 52 54 58 61 65 73 75 74 69 64 55 48
91 74 55 49 51 50 56 50 52 57 57 50 49 48 45 43 43 46 43 40 37 39 41 33 32 30 29 34 42 46 42 50 56 59 57 61 64 66 69 61 52 50 46 43
95 95 72 41 53 54 53 55 48 51 57 60 52 53 47 44 40 41 42 40 41 38 35 35 30 28 30 35 40 40 46 50 55 62 69 66 67 66 54 51 49 42 39 42
97 98 80 61 57 56 64 48 51 53 55 56 57 51 47 45 46 44 44 39 37 36 33 32 26 29 31 35 39 43 48 47 48 53 59 60 54 52 51 46 40 39 42 47
97 98 92 69 67 61 59 55 52 51 51 51 51 53 49 47 43 43 44 42 39 39 39 34 30 31 34 38 41 42 44 47 50 49 45 45 49 50 46 41 41 45 48 51
87 97 77 68 70 73 61 61 56 55 54 53 52 52 50 47 45 44 45 40 38 39 39 37 36 35 36 38 39 41 45 45 42 43 46 49 49 48 47 46 48 50 53 54
73 60 63 57 64 65 62 65 68 66 65 59 57 59 61 56 52 54 56 56 52 50 49 43 40 40 43 45 46 47 45 45 46 48 50 51 52 52 52 53 55 58 61 62
65 58 61 55 47 47 61 66 65 71 73 67 64 58 59 62 58 57 53 52 55 56 54 52 48 45 45 47 51 51 51 51 53 55 57 57 60 63 63 65 66 65 70 79
60 57 56 50 44 41 46 59 65 67 73 72 68 67 68 63 64 63 58 59 59 58 58 59 61 62 61 59 54 54 56 59 61 63 65 66 66 70 74 78 81 82 82 79
81 68 69 55 52 50 54 63 67 62 65 71 74 73 73 71 68 66 65 65 64 64 65 69 74 76 75 74 72 71 70 68 68 71 73 76 79 82 84 85 82 82 77 76
71 61 61 58 56 53 53 56 61 63 68 66 71 74 74 75 76 78 75 75 73 73 76 79 82 88 87 88 88 89 87 85 85 85 86 87 87 86 85 88 87 86 90 94
88 75 71 64 59 60 63 61 58 54 53 59 66 63 63 64 71 78 78 77 79 81 82 79 82 90 92 94 93 93 92 92 93 94 94 94 96 96 95 95 96 97 96 96
82 79 78 75 70 66 68 69 65 58 54 49 51 57 60 56 58 70 74 75 83 86 93 89 88 92 96 98 97 96 97 97 97 97 96 96 96 96 96 96 96 97 97 97
86 81 78 74 72 70 69 71 66 62 60 57 61 64 64 67 72 74 75 81 87 90 91 94 98 96 97 97 97 96 97 96 96 97 96 96 96 96 97 97 97 97 97 97
90 86 80 77 78 76 79 76 68 63 62 61 61 60 60 60 62 66 75 79 82 85 96 97 93 85 86 89 92 96 97 97 96 95 92 93 94 96 97 97 97 97 98 98
92 88 83 91 92 85 82 78 75 75 74 72 71 72 69 76 83 79 77 76 76 76 79 83 84 87 93 96 96 96 93 91 95 97 97 97 97 97 97 97 98 98 98 98
95 96 95 94 83 84 89 89 85 83 84 85 85 80 78 78 78 84 95 97 96 95 89 86 85 88 89 90 92 95 97 96 96 97 97 97 98 98 98 98 98 98 99 99
89 91 90 85 84 88 90 86 87 88 90 91 91 91 90 84 81 82 83 85 90 93 90 90 92 96 96 96 97 97 97 97 97 98 97 98 98 98 98 97 91 82 74 63
91 92 93 95 97 97 97 97 96 97 96 96 96 97 97 97 96 96 96 96 96 96 97 96 96 97 97 97 97 97 97 97 96 93 89 81 71 62 54 47 41 36 35 35
96 96 97 97 97 97 97 97 97 97 96 97 96 96 97 97 97 97 96 97 97 96 96 96 97 97 96 93 86 77 67 56 47 41 39 37 34 31 30 30 31 32 33 34
96 96 96 97 97 97 97 97 97 96 97 97 97 97 97 96 96 96 94 93 91 89 85 76 65 54 46 40 36 34 33 31 28 25 24 25 26 28 29 30 30 32 35 37
95 96 97 97 96 97 97 97 97 97 95 93 90 86 80 75 68 64 59 54 48 42 37 35 33 31 28 25 21 20 20 21 22 23 25 26 28 30 31 33 35 37 40 42
80 80 80 81 80 77 73 67 61 57 51 44 40 38 35 34 32 31 30 29 27 25 23 21 20 19 18 18 19 20 21 23 24 26 28 30 32 33 34 37 39 41 42 44
79 75 69 63 58 52 44 37 31 28 26 25 24 26 25 25 24 24 23 22 22 21 20 20 21 21 20 21 22 24 26 27 28 30 31 33 35 37 40 41 43 46 49 51

GFSNGP_prec_cthk_057.txt.gz
RH
57 53 58 57 58 55 55 53 55 47 50 37 38 39 41 51 52 47 43 40 40 43 39 40 42 38 32 30 30 30 30 34 38 45 54 68 62 63 68 78 68 70 71 77
64 56 57 60 56 54 53 56 57 57 52 48 41 41 42 44 49 45 39 38 40 40 42 38 45 42 36 30 28 27 30 33 35 42 53 63 68 64 70 67 70 73 72 74
81 76 65 60 49 57 56 55 57 62 57 52 46 41 45 43 48 45 44 44 43 42 44 39 40 40 40 34 33 30 26 32 36 44 54 64 66 71 73 71 75 74 74 77
94 88 91 46 49 50 57 55 54 56 56 54 51 44 43 45 41 42 42 42 38 40 44 40 41 39 39 38 35 33 28 35 42 45 52 55 58 61 61 67 70 79 85 83
87 92 83 61 57 57 60 54 55 54 54 54 54 47 43 40 39 38 40 37 41 42 45 45 40 37 38 38 35 32 31 44 48 44 47 54 59 65 67 72 80 87 83 82
82 83 80 57 63 62 65 58 50 49 55 56 54 55 49 43 44 45 41 38 42 43 45 49 45 39 35 36 36 31 33 38 45 46 48 54 58 61 70 78 80 81 75 64
81 82 66 55 58 65 79 52 55 55 55 53 55 50 52 53 51 47 46 44 43 44 44 43 41 39 41 39 36 34 35 40 44 51 52 54 57 63 69 75 72 62 59 61
62 74 69 55 54 74 83 74 62 62 63 58 54 48 48 51 54 51 51 48 43 41 40 40 40 39 41 44 43 45 44 46 50 50 53 58 63 67 66 59 57 59 61 59
61 59 46 43 54 70 89 89 73 65 60 60 57 56 51 49 49 50 53 53 50 47 44 45 47 47 49 50 49 49 51 55 57 58 61 64 64 59 58 60 61 61 62 64
53 35 31 30 42 54 69 82 72 72 69 68 62 60 56 53 50 57 58 57 59 56 54 56 57 61 62 59 58 54 54 56 58 61 65 63 60 59 61 63 65 67 69 70
50 43 41 34 52 59 66 69 61 63 64 72 76 73 68 66 64 63 64 67 68 66 64 59 59 64 70 70 66 64 66 65 65 65 64 64 64 65 66 68 69 70 72 73
63 71 79 56 62 59 59 61 58 60 63 70 74 75 73 74 73 70 70 72 72 71 72 70 70 72 73 75 74 73 74 78 78 77 78 79 76 74 75 77 81 83 87 88
74 80 85 85 73 67 71 65 64 70 67 64 67 66 71 80 77 75 77 76 75 79 77 75 75 77 75 77 79 84 85 85 89 89 90 93 94 94 92 94 95 96 96 97
81 82 97 91 87 83 80 69 70 67 68 68 65 62 62 68 74 86 83 84 86 86 83 80 80 83 82 82 86 86 88 94 96 98 98 97 96 97 97 97 97 96 93 92
92 94 94 88 86 84 82 72 61 63 72 71 69 63 59 59 66 69 74 73 77 82 85 83 82 85 89 91 91 93 91 95 98 98 97 97 97 96 97 97 97 97 97 97
90 93 94 91 93 90 88 75 65 71 74 74 69 66 63 58 57 61 71 78 80 81 83 87 89 89 89 87 93 97 98 97 97 97 92 92 92 94 96 96 96 96 96 97
96 95 98 96 98 97 90 79 74 77 75 73 74 73 70 66 63 65 73 79 83 86 87 85 89 92 93 89 94 95 97 92 89 89 87 93 96 97 96 96 97 96 94 97
95 95 98 96 93 98 96 90 87 81 78 75 75 76 76 76 75 72 74 74 71 72 72 72 73 74 74 74 77 78 83 88 88 88 87 87 90 93 92 94 96 97 98 98
87 92 97 97 96 93 94 89 79 78 79 85 87 87 87 84 82 79 77 75 77 79 81 79 84 90 95 96 96 97 96 96 91 90 91 95 96 97 97 97 97 97 98 98
92 92 92 95 95 96 97 88 84 89 92 89 96 93 90 85 85 88 88 83 82 83 84 87 88 96 96 95 94 97 96 96 95 94 96 97 98 98 97 97 98 98 98 98
96 96 93 94 94 94 94 91 90 93 92 92 97 97 98 95 96 97 95 93 95 97 96 93 90 88 88 89 93 94 94 97 97 97 97 97 96 94 89 81 70 59 52 47
92 93 94 96 96 95 94 95 95 94 93 91 95 97 96 97 97 97 97 96 97 97 96 96 97 97 96 96 94 91 88 84 79 71 60 51 45 42 39 36 35 32 29 27
96 97 97 97 97 97 97 98 98 98 97 96 96 97 97 97 97 96 96 97 97 95 93 90 86 80 73 65 56 48 42 39 36 34 32 31 30 27 24 22 23 24 25 28
96 96 97 97 97 97 97 97 97 97 97 96 96 96 95 93 91 88 83 77 70 60 50 44 39 35 31 28 26 26 25 24 22 20 20 20 21 23 24 25 26 27 29 31
97 97 97 97 96 95 93 92 89 84 78 73 67 60 51 42 35 32 28 26 25 23 21 21 19 17 15 14 15 15 16 17 19 20 21 22 23 24 26 27 29 30 32 35
86 86 86 83 78 72 65 58 50 44 37 30 27 25 24 23 23 23 22 22 20 19 17 17 16 16 15 15 16 18 19 20 21 23 24 25 26 28 30 32 33 34 35 37
81 75 68 60 53 47 40 35 30 27 26 23 21 23 23 23 22 21 21 19 18 17 17 16 17 17 17 18 19 21 22 24 25 27 28 29 30 31 32 34 35 37 38 40

GFSNGP_prec_cthk_060.txt.gz
RH
70 65 61 56 56 57 57 56 60 56 59 52 46 45 41 41 42 48 47 45 38 40 38 37 39 38 39 35 31 32 31 31 27 30 37 44 47 59 74 80 69 74 88 81
76 69 62 61 60 60 59 59 57 58 58 55 48 48 46 42 42 42 45 53 50 38 35 35 37 38 38 38 38 36 28 26 26 26 35 40 48 55 68 74 75 73 76 80
76 72 64 59 60 64 64 61 57 56 54 53 50 51 50 48 47 46 44 48 52 49 42 39 36 41 40 40 41 38 34 29 29 25 30 36 45 53 60 71 75 77 79 76
86 75 88 65 56 58 57 56 59 60 60 58 56 51 52 51 49 46 45 43 44 45 45 42 37 41 47 45 47 41 38 34 32 26 33 41 46 53 62 68 73 79 76 78
82 72 63 60 64 58 62 55 59 58 54 52 57 52 52 52 52 50 47 41 39 42 48 48 44 42 44 47 47 48 42 40 39 29 39 47 53 52 58 65 71 77 75 76
83 82 71 45 53 61 52 46 53 61 60 58 58 57 55 54 56 55 51 50 44 47 48 47 44 46 42 43 44 47 47 43 43 38 40 45 52 52 59 63 66 71 75 75
71 68 60 46 39 52 62 48 52 56 68 67 64 63 58 53 51 56 56 53 52 48 47 47 47 48 50 52 48 47 49 46 53 47 47 47 49 52 55 57 60 65 70 75
70 74 59 38 39 45 50 54 63 64 63 66 67 64 63 57 52 54 55 55 56 52 51 50 50 51 52 50 46 49 52 54 60 57 52 54 56 57 59 59 61 66 71 74
57 49 38 41 41 38 40 47 50 69 69 71 73 68 67 61 61 55 52 53 55 52 52 53 54 54 53 57 59 60 62 64 63 60 60 57 58 57 59 66 71 74 75 70
47 35 37 38 42 42 44 44 49 50 69 70 79 73 70 68 63 61 57 54 59 65 61 60 60 63 62 65 65 72 76 74 71 69 67 68 69 71 77 78 79 78 76 75
49 45 42 40 46 48 43 47 50 53 57 70 68 66 78 79 74 69 69 64 68 68 74 67 65 77 75 73 72 73 73 72 73 75 77 79 81 87 90 89 87 85 85 86
57 56 52 46 50 51 54 52 55 58 63 67 68 76 72 73 81 76 79 78 76 77 82 81 80 81 81 81 83 86 83 81 82 85 86 86 85 86 92 94 95 96 96 97
64 61 59 56 62 61 64 69 72 87 79 74 77 77 70 70 77 80 81 83 82 84 87 88 88 88 87 89 88 90 87 88 88 89 90 90 93 97 98 98 98 97 97 97
73 68 65 66 67 68 75 86 84 90 83 80 80 78 81 71 68 70 68 75 86 84 91 90 95 95 95 97 96 97 97 96 98 95 93 95 96 98 97 97 97 96 96 97
85 81 78 75 85 86 91 98 96 92 86 84 84 78 74 73 67 67 65 63 69 72 78 87 92 91 94 98 98 98 95 96 97 95 94 97 98 97 97 93 93 94 96 95
91 87 85 81 84 89 93 89 96 90 89 94 84 76 76 77 71 69 66 64 65 67 72 81 91 93 97 98 97 95 94 91 93 93 93 94 94 93 93 92 94 95 93 89
87 89 92 91 91 94 94 95 98 94 96 91 85 76 81 82 75 74 74 74 75 75 76 78 79 86 91 83 89 86 95 88 88 89 81 84 88 89 91 92 93 95 91 91
87 95 98 95 94 96 94 93 92 94 94 92 91 85 86 86 79 81 82 83 85 85 82 82 82 80 79 80 84 88 81 85 86 87 92 95 96 92 95 97 97 97 97 97
81 82 92 94 95 98 98 96 93 90 89 92 93 91 90 87 85 84 83 88 88 88 88 88 85 83 88 89 90 94 95 96 96 96 97 97 97 97 96 97 97 97 97 98
81 82 88 93 92 93 92 92 94 95 95 95 96 93 91 92 93 93 91 91 92 91 92 93 92 94 96 95 94 92 91 90 91 94 97 97 96 94 95 96 94 88 76 63
89 95 93 95 95 93 95 94 94 96 96 96 96 97 97 93 96 97 94 93 94 93 92 95 96 96 97 97 96 96 95 94 93 88 81 73 64 56 50 46 43 41 39 35
97 98 97 97 96 96 97 97 97 97 96 96 97 97 97 97 98 97 97 95 95 96 96 94 92 85 79 73 66 59 53 49 45 42 39 38 36 34 32 30 29 27 25 23
97 97 97 97 97 97 97 97 97 97 97 97 97 97 97 97 97 96 93 91 85 74 64 55 49 43 39 36 34 34 33 31 28 26 24 23 21 19 18 18 19 20 21 23
98 98 97 97 98 97 97 97 97 97 97 97 95 91 84 75 68 60 54 49 44 38 32 26 19 14 13 12 12 12 13 13 14 15 16 17 18 18 19 21 22 23 25 26
97 97 97 97 97 96 94 90 85 77 69 62 56 51 45 40 32 29 25 21 20 17 15 14 14 13 13 13 14 14 15 16 17 17 18 19 20 22 23 24 25 26 27 29
96 96 93 89 81 71 61 54 47 44 41 36 34 31 29 28 27 25 22 20 17 15 14 14 14 14 15 15 16 17 18 19 19 20 21 22 24 25 26 28 29 30 31 33
75 68 59 52 47 42 38 34 30 27 27 25 24 25 25 24 23 20 19 17 16 15 16 16 16 16 17 18 18 19 21 22 23 24 25 26 28 29 30 31 33 34 36 37

GFSNGP_prec_cthk_063.txt.gz
RH
82 76 74 68 62 59 56 54 56 53 55 51 51 54 52 47 38 39 40 39 40 44 45 44 42 41 42 38 39 38 37 37 31 28 31 36 38 40 41 49 65 76 83 83
68 72 75 72 65 58 57 59 61 61 59 56 54 57 57 53 48 43 33 31 35 42 44 44 45 44 43 41 43 41 40 35 35 34 30 25 30 36 44 47 57 67 73 84
68 68 61 66 63 62 65 67 66 68 65 60 58 57 57 59 56 53 44 40 37 38 39 48 45 41 42 43 45 45 42 43 42 39 36 33 29 33 35 40 47 55 66 81
81 69 62 57 61 59 59 64 64 62 63 61 57 55 54 57 58 56 55 54 48 43 39 39 42 43 42 41 45 44 44 43 42 44 41 36 34 33 40 48 51 55 62 71
78 72 65 53 60 63 66 63 64 60 59 58 56 52 53 60 59 59 56 56 54 52 48 44 43 41 43 41 45 46 47 45 45 48 47 46 40 41 45 50 57 57 60 66
75 73 69 56 57 59 58 54 54 60 55 50 49 55 61 60 60 58 55 59 56 53 50 48 48 47 48 45 44 50 49 52 57 53 50 48 50 48 48 51 54 55 55 59
75 71 61 53 53 52 51 44 42 47 50 55 54 56 60 65 63 61 61 58 59 59 55 52 51 52 53 50 47 51 55 59 63 61 57 55 58 54 52 51 55 56 54 56
60 68 67 50 55 52 42 35 43 41 36 42 55 58 57 58 63 64 60 56 55 55 56 55 55 54 52 53 55 57 62 64 64 63 62 63 71 72 63 58 59 61 60 61
59 57 55 57 53 47 41 37 35 36 31 38 52 60 64 65 66 63 60 61 61 59 60 59 59 59 59 61 63 64 63 65 65 67 71 75 72 64 67 62 65 63 65 67
51 46 46 45 47 47 42 38 37 38 44 48 53 61 68 70 72 74 73 70 64 63 67 68 64 63 60 60 66 70 70 71 74 76 84 79 74 73 75 81 84 84 87 93
54 50 49 49 51 48 42 40 40 41 45 49 52 57 67 69 75 78 80 78 76 70 73 78 77 73 73 72 71 71 75 82 85 85 79 78 80 80 81 86 90 93 97 99
60 63 59 53 52 52 51 48 51 47 51 52 56 67 73 78 74 79 79 80 88 87 83 84 86 85 87 88 89 88 89 94 88 85 85 86 87 88 92 95 97 96 95 97
70 68 65 65 63 58 58 57 54 54 58 63 65 81 88 86 81 81 83 81 80 83 91 93 93 91 94 94 96 92 98 92 93 94 94 95 96 94 96 97 97 97 97 97
75 74 74 74 72 69 67 64 66 63 67 74 75 80 93 89 86 83 87 85 76 78 81 78 88 93 96 97 98 99 98 98 99 99 99 99 99 98 97 96 95 96 97 97
78 81 80 79 78 78 74 69 69 72 77 83 98 93 92 90 94 91 87 82 76 72 70 71 71 74 90 92 95 98 98 98 98 98 97 96 97 97 98 97 97 94 94 96
82 88 85 81 83 81 82 80 80 79 87 92 95 98 98 95 97 93 90 81 81 78 76 75 72 73 76 77 81 88 93 97 97 96 97 97 96 96 97 91 90 94 90 87
82 87 87 83 81 87 89 87 86 89 94 94 96 97 97 98 97 95 93 88 87 85 82 83 86 82 76 75 79 78 86 93 97 96 96 96 97 96 95 84 87 90 92 95
81 85 87 88 89 95 96 95 95 96 96 97 96 96 92 91 93 96 94 93 87 83 86 87 87 87 90 90 84 83 84 85 85 90 90 88 89 92 93 95 96 96 96 96
83 83 84 86 86 85 89 97 97 97 97 96 97 94 92 92 91 93 94 93 91 88 91 90 88 88 90 91 90 92 93 92 92 94 94 96 95 96 95 95 96 94 91 89
86 85 85 86 87 84 84 94 97 97 97 96 95 94 93 94 95 96 96 94 93 93 93 93 91 94 92 94 94 92 93 95 96 94 95 93 89 84 76 67 57 52 48 44
91 90 91 90 90 92 94 97 96 95 93 93 92 92 94 95 94 95 97 96 95 96 97 97 94 89 87 83 79 73 67 60 52 49 47 45 43 41 38 36 33 31 28 26
96 95 93 92 95 97 97 97 97 97 97 97 97 97 97 97 97 97 96 95 93 87 79 69 61 55 50 45 44 42 39 36 34 32 30 26 22 19 17 17 16 16 17 18
97 97 97 97 97 97 97 97 97 97 97 97 97 97 96 91 84 75 67 63 59 53 47 44 40 37 34 32 30 27 24 21 18 15 14 14 15 15 16 16 17 18 19 21
97 98 97 97 97 98 97 97 97 96 90 81 74 68 63 56 53 51 50 46 40 36 32 27 23 20 16 14 13 13 13 14 15 16 16 17 17 18 19 20 21 22 23 24
98 98 98 98 97 95 89 82 74 68 62 57 55 53 50 46 42 38 31 25 21 18 17 17 17 17 17 16 15 15 15 16 17 18 18 19 20 21 22 23 24 25 26 27
98 98 94 88 79 72 66 62 56 53 49 43 38 34 29 25 23 21 19 17 16 15 15 15 15 15 16 17 18 19 19 20 20 21 21 22 23 24 26 27 28 29 30 31
70 62 55 48 45 42 37 33 28 26 26 26 24 25 25 24 22 20 18 17 17 17 17 18 18 19 20 21 22 22 22 23 23 24 25 25 26 27 29 30 31 33 34 35

GFSNGP_prec_cthk_066.txt.gz
RH
69 68 65 68 68 63 59 58 59 57 55 52 50 49 48 50 44 45 50 52 49 48 46 45 41 43 46 48 44 41 44 46 42 41 41 41 41 42 43 43 43 50 53 57
78 72 69 71 67 65 64 63 62 60 57 54 52 52 52 51 54 50 46 47 50 49 48 44 46 45 46 47 46 42 42 38 40 40 37 33 34 33 34 38 42 48 49 51
74 67 65 73 72 70 68 65 65 65 63 58 60 60 59 60 59 55 49 46 45 46 47 46 46 48 50 46 51 48 44 43 46 45 45 42 40 40 37 33 37 40 47 54
82 77 77 66 64 67 68 70 68 66 66 63 61 57 58 59 58 57 57 50 50 48 43 40 41 47 55 55 51 49 49 49 48 47 49 50 50 48 48 46 39 37 43 51
72 75 68 62 70 64 63 73 70 66 62 60 56 50 51 53 57 59 58 57 55 52 49 49 47 45 42 52 57 56 50 47 49 53 54 57 50 52 54 54 50 46 46 51
79 70 64 57 64 68 65 59 54 56 54 51 51 54 49 48 51 56 56 55 56 53 56 53 52 49 46 44 48 52 52 51 53 53 57 59 61 59 58 56 54 55 52 51
68 69 63 55 58 59 53 62 58 53 49 46 45 48 52 52 52 52 56 58 55 58 59 58 57 57 52 49 51 53 55 56 58 60 63 66 67 68 58 61 63 67 67 60
53 65 75 59 52 48 57 54 54 50 50 47 41 36 42 47 51 55 54 54 57 61 60 59 58 59 61 60 57 58 57 58 57 59 62 66 72 75 77 79 71 74 79 70
56 55 56 59 58 57 52 53 51 44 42 40 35 37 42 47 50 57 60 62 60 59 62 64 64 61 61 61 63 66 66 69 67 68 73 76 80 80 80 76 80 78 70 70
60 60 61 58 54 48 47 46 44 39 36 35 35 42 47 49 54 60 62 71 70 68 64 70 72 72 68 67 69 74 75 75 78 79 81 81 81 81 81 84 85 76 74 76
54 52 54 55 54 52 50 47 43 40 38 40 40 42 46 46 52 62 67 68 77 75 74 76 79 87 84 79 79 78 80 79 79 81 83 84 86 89 90 91 87 82 84 84
61 67 64 63 58 55 53 52 50 48 46 46 49 50 50 51 55 62 69 77 78 76 71 76 87 92 94 91 87 88 87 85 83 82 82 84 85 89 93 92 91 92 94 94
66 70 69 68 66 67 64 62 60 58 56 55 56 57 60 63 64 68 78 83 87 88 86 82 81 92 91 95 94 93 97 99 96 95 96 95 98 95 98 98 98 98 98 98
69 69 71 73 75 73 72 70 66 65 63 62 61 63 65 68 70 80 79 90 91 93 92 87 85 84 85 89 86 93 96 98 99 99 99 99 99 99 98 98 98 97 97 96
73 71 70 73 76 76 76 75 73 71 70 71 68 68 70 72 72 98 91 88 97 95 92 90 89 89 86 85 87 93 92 95 97 97 98 97 98 97 97 97 97 96 96 96
73 69 69 70 73 77 78 75 74 74 75 74 76 74 75 77 87 88 97 98 98 97 95 93 89 88 90 90 88 89 87 85 83 89 94 94 97 96 96 97 96 96 97 96
74 70 69 70 72 77 79 81 83 84 85 82 86 87 85 85 90 96 96 98 97 97 95 95 92 88 88 88 90 92 92 92 93 91 87 89 90 94 92 91 93 96 96 97
76 76 77 77 76 76 78 81 85 87 95 94 94 96 97 95 91 97 97 97 94 94 93 94 95 94 92 89 89 94 90 91 93 92 90 92 93 93 93 92 93 96 95 96
72 73 74 75 80 79 81 83 86 87 86 86 94 96 96 96 97 97 97 97 94 91 90 92 93 92 92 94 94 96 94 93 92 92 92 92 94 93 94 94 93 90 84 76
88 88 88 88 87 85 84 84 87 88 87 87 93 96 97 97 97 97 98 96 94 93 92 92 91 89 90 90 90 91 90 88 84 80 77 73 67 62 56 53 52 49 45 42
96 96 96 95 94 94 94 93 95 95 93 93 97 97 97 97 96 96 96 94 92 88 84 79 73 65 61 56 52 52 50 48 46 46 46 45 43 40 40 38 35 34 32 31
92 96 97 97 97 96 95 96 96 95 97 97 97 97 97 97 96 91 84 77 69 63 57 54 52 49 45 43 42 40 38 35 34 34 31 31 30 27 26 26 25 24 24 23
97 95 96 97 97 97 97 98 98 98 98 97 96 89 81 74 68 66 60 53 49 46 44 43 41 39 36 33 31 28 25 23 22 22 21 20 19 19 20 20 20 20 19 19
97 97 97 97 97 98 97 98 97 90 83 75 67 65 66 63 58 54 49 45 42 38 35 32 28 25 23 23 22 22 22 22 22 22 21 19 17 17 18 18 19 20 20 21
98 98 98 98 98 96 90 84 79 73 68 66 63 57 52 49 45 40 34 30 26 25 23 20 17 16 15 15 15 15 15 16 16 17 18 19 19 20 20 21 21 22 23 24
86 87 84 79 73 68 64 60 57 53 48 42 35 29 24 22 21 19 18 17 16 16 16 16 16 16 17 17 17 18 18 19 19 20 21 21 22 22 23 23 24 25 26 27
73 69 64 58 54 50 48 43 36 32 29 28 28 27 25 22 20 19 18 18 18 18 18 19 19 19 20 20 21 21 22 23 23 23 23 24 24 25 26 27 28 29 30 32

GFSNGP_prec_cthk_069.txt.gz
RH
69 77 68 67 63 60 59 60 60 58 55 50 53 53 52 54 52 48 49 50 52 52 52 54 50 50 49 47 47 48 49 47 42 47 49 49 47 47 47 45 45 45 46 46
82 70 67 64 60 60 62 64 63 62 61 60 59 59 57 55 54 53 52 58 54 53 57 57 58 55 53 53 49 51 49 46 47 46 48 50 48 46 45 44 43 43 42 45
95 83 74 73 67 71 71 67 67 66 67 67 66 61 61 59 61 59 58 56 53 54 55 56 57 56 57 57 58 54 51 52 51 52 49 46 46 44 43 42 45 42 40 38
96 88 88 81 71 67 74 74 70 72 70 69 63 62 64 62 62 64 63 65 64 58 53 56 56 55 54 56 57 60 58 57 55 55 52 51 51 51 54 52 48 49 50 49
88 88 88 68 72 76 83 79 67 72 73 68 59 56 67 66 59 53 61 63 69 64 59 55 56 54 50 47 49 56 59 64 63 60 57 56 54 53 52 53 53 50 54 56
84 93 85 73 77 81 72 84 67 66 65 61 56 52 61 57 55 50 49 54 58 62 66 65 65 62 60 54 52 55 58 60 66 71 68 68 60 60 57 54 57 60 62 62
74 75 63 68 68 67 73 87 77 73 68 64 59 57 53 47 44 45 50 51 49 51 57 64 64 65 70 66 63 61 60 61 62 67 69 70 70 72 70 69 67 72 72 75
65 71 71 68 60 65 81 78 75 68 63 56 48 45 43 43 46 51 51 51 51 51 53 55 61 67 66 68 69 67 68 64 62 64 67 70 72 73 76 77 78 82 86 89
47 52 61 70 77 73 71 69 65 57 51 47 42 36 36 40 48 49 49 42 42 48 51 57 58 63 67 69 71 73 71 71 69 70 73 75 78 78 82 84 85 88 94 91
77 66 80 69 71 64 64 59 54 49 43 36 35 37 38 41 45 44 44 44 47 50 52 58 59 64 69 71 77 78 77 77 79 78 80 83 85 87 87 94 93 95 96 95
66 82 74 68 66 58 55 50 48 46 46 44 42 40 39 42 44 45 45 44 46 53 58 60 63 67 71 80 82 83 85 86 86 85 85 87 90 94 93 96 96 99 99 96
73 75 69 70 66 60 55 54 52 51 49 49 47 46 46 46 48 50 51 53 56 57 59 66 68 67 69 74 85 88 93 92 97 96 92 92 94 95 98 97 97 97 96 96
80 76 70 64 64 61 59 59 58 58 56 53 52 51 52 53 54 57 58 61 62 64 65 70 78 81 80 77 72 84 92 96 98 99 99 99 95 95 94 97 98 97 98 98
71 66 69 68 66 68 69 69 67 65 63 61 59 59 58 57 59 62 63 64 65 65 71 84 80 88 90 88 85 85 93 96 98 95 98 98 98 98 98 97 97 98 98 97
74 72 73 72 69 67 68 71 73 72 68 63 62 63 64 64 64 66 67 68 70 71 77 90 98 89 89 90 89 89 89 91 95 95 96 96 97 97 96 97 97 96 97 97
75 74 72 71 66 64 64 65 69 72 71 69 69 67 68 69 69 70 72 72 72 74 84 93 97 97 96 96 94 92 90 91 92 93 95 95 94 95 97 97 96 96 96 97
77 75 73 71 70 68 67 67 69 70 72 71 74 78 80 81 81 79 79 82 83 84 94 96 96 96 97 96 94 92 92 92 92 95 95 97 97 97 97 96 95 96 97 96
80 79 79 77 75 72 70 70 71 74 75 74 76 80 82 85 90 90 91 93 92 91 91 94 97 96 94 94 92 92 93 93 94 95 96 98 97 96 95 96 95 95 97 97
75 75 73 69 69 72 77 79 77 77 80 81 82 84 91 92 89 87 92 96 96 96 96 97 97 97 96 94 93 93 94 94 94 94 94 93 94 93 92 90 86 82 76 69
75 75 78 82 86 88 88 90 91 91 90 88 88 89 92 94 94 93 93 97 96 96 92 91 90 86 84 79 79 77 74 71 69 67 64 62 60 58 56 54 51 48 46 43
82 86 88 90 89 90 93 94 96 97 96 95 94 93 93 96 97 97 97 96 92 86 77 70 65 65 59 62 61 59 54 52 51 49 47 44 42 41 39 37 35 33 32 31
83 84 89 91 91 91 92 93 96 97 97 97 97 96 95 95 93 82 74 74 65 57 54 51 48 46 47 50 50 47 45 44 41 39 36 34 32 32 31 31 31 31 30 30
86 88 90 90 91 93 95 95 96 97 97 98 95 88 81 77 72 70 63 55 53 48 47 44 41 38 36 40 40 37 34 32 32 31 30 29 29 28 27 25 25 24 24 23
97 97 97 97 97 97 98 97 97 94 88 80 75 75 73 68 65 61 56 46 41 38 35 32 28 26 27 31 32 29 29 28 26 24 23 23 24 24 25 24 25 26 26 26
87 87 87 88 90 90 85 79 74 70 68 65 62 59 57 53 50 44 41 32 26 31 25 20 19 19 23 23 20 24 24 20 18 25 25 25 25 26 27 27 25 22 23 24
79 80 80 78 77 75 70 68 66 64 60 52 45 39 34 30 28 27 24 20 20 22 25 22 17 24 25 23 24 20 25 26 24 25 23 28 27 30 27 24 24 25 26 26
77 73 67 61 56 53 52 53 53 48 39 35 32 29 28 27 27 28 28 28 27 27 27 27 27 21 21 22 28 27 30 31 26 25 25 27 27 28 27 27 28 29 30 32

GFSNGP_prec_cthk_072.txt.gz
RH
89 85 85 91 82 79 79 77 75 65 72 72 66 60 55 55 54 53 54 59 59 58 58 55 56 56 57 54 52 50 49 47 45 47 45 43 44 45 48 48 48 47 46 45
81 81 84 97 78 77 81 78 68 61 67 66 66 63 61 59 57 57 58 59 61 60 55 55 61 56 55 57 57 55 53 50 51 52 51 48 47 50 52 51 49 49 45 43
93 93 89 80 82 80 76 70 73 73 76 68 67 65 67 64 63 63 64 64 64 63 59 57 57 60 61 66 61 58 56 57 56 55 54 54 57 59 53 51 49 44 45 48
96 94 89 68 72 71 76 78 74 79 80 75 70 73 71 68 67 69 69 69 68 66 62 63 62 63 63 59 61 68 65 65 64 62 61 61 60 59 60 61 56 54 54 52
97 92 87 76 89 84 76 88 91 85 80 73 65 75 72 67 68 68 66 63 67 71 68 69 67 63 62 64 63 61 71 74 71 67 67 66 64 64 64 66 66 64 64 65
91 92 94 81 87 92 91 98 86 85 78 73 71 81 81 76 70 66 63 61 58 57 63 69 72 70 69 64 63 60 59 61 63 68 65 67 69 67 69 68 68 71 67 64
85 93 71 70 85 81 94 93 91 84 76 73 70 68 67 58 55 59 61 61 55 57 57 51 56 62 68 72 70 72 71 67 67 68 69 73 74 75 76 77 73 75 74 70
75 80 79 77 85 81 89 91 86 79 74 70 66 62 57 55 57 55 52 48 50 50 46 47 51 53 58 63 69 70 72 72 75 74 76 77 77 82 80 78 83 83 83 86
58 57 69 76 78 81 84 83 76 69 65 65 63 58 51 50 46 44 44 45 45 45 45 45 45 48 52 56 60 68 72 75 79 79 79 82 82 85 89 87 87 89 88 89
71 83 78 79 75 78 75 71 70 69 66 62 59 54 49 39 36 38 38 41 42 43 43 42 45 49 49 52 54 55 66 73 75 79 84 86 86 89 92 92 92 92 95 95
90 97 94 94 84 80 74 66 63 59 54 50 46 44 43 42 42 41 42 45 46 45 46 46 46 48 48 49 52 53 54 62 73 76 80 87 94 92 90 92 97 97 98 96
96 93 96 95 88 76 68 64 59 55 53 52 52 50 47 45 45 46 48 48 50 52 54 53 53 53 53 54 56 62 64 59 61 76 84 84 84 86 92 94 98 95 90 96
84 83 86 81 71 68 65 61 58 58 59 58 57 56 54 53 52 52 52 52 54 56 56 56 56 57 58 59 62 70 66 71 72 72 74 84 91 89 87 94 97 98 98 97
79 77 74 71 68 66 65 63 62 62 63 63 62 60 58 57 56 55 55 56 57 59 61 61 61 61 63 66 72 78 89 83 77 84 83 83 89 92 93 95 96 94 97 97
81 75 72 70 68 67 67 64 61 61 60 62 64 64 62 61 60 59 60 62 62 63 64 64 65 66 69 72 78 82 90 95 90 87 89 90 92 94 94 95 96 96 97 97
79 76 74 72 72 71 69 68 65 63 60 60 60 60 60 60 61 63 64 65 65 67 68 70 70 74 76 76 80 90 93 94 95 94 92 91 92 93 95 98 95 95 97 96
80 79 77 75 74 72 71 69 67 65 63 62 62 63 63 63 63 65 66 68 71 73 77 79 81 83 85 85 88 97 97 96 94 94 94 94 94 94 92 94 97 97 95 96
78 76 75 75 73 70 69 68 67 66 65 65 68 69 68 68 71 72 74 78 83 88 89 89 90 93 96 96 96 94 95 97 98 95 93 93 95 95 95 93 93 93 94 94
79 77 75 73 72 71 71 71 72 76 78 79 81 83 83 82 80 81 82 85 87 93 94 93 93 96 96 96 96 96 96 96 97 96 94 90 86 84 80 77 73 70 65 58
78 78 79 76 74 76 79 82 83 84 84 87 89 89 91 91 91 90 89 90 93 93 89 87 85 80 77 73 70 67 63 64 62 58 56 55 54 53 49 46 43 41 39 36
75 74 74 75 79 83 82 81 86 87 87 88 88 91 93 96 96 96 95 88 81 77 70 67 65 64 62 60 57 55 54 54 54 52 48 45 43 41 38 36 34 33 33 32
75 76 78 79 79 79 81 82 84 87 89 90 92 95 96 95 91 80 72 72 67 61 57 55 52 51 52 51 49 48 46 44 42 40 38 36 33 32 31 31 30 29 28 26
81 82 85 87 91 93 94 94 94 95 95 93 89 86 81 76 73 71 66 59 56 53 49 46 44 43 43 41 40 38 35 33 32 30 31 29 28 27 27 25 25 25 24 23
90 88 86 84 82 81 82 82 83 80 78 74 70 69 68 65 62 59 52 48 47 45 39 37 35 32 30 28 29 27 22 23 26 25 25 25 25 25 25 25 25 25 24 26
66 67 68 71 73 73 69 64 65 64 63 61 58 55 51 47 45 42 41 40 36 37 29 22 19 24 21 21 20 22 26 24 23 23 26 26 26 26 26 26 25 25 27 27
66 67 67 67 66 65 64 61 60 59 59 58 52 48 45 41 36 33 30 28 27 28 27 26 22 20 21 24 26 26 27 28 25 23 25 29 29 30 30 27 27 27 27 28
65 64 62 56 48 44 44 46 52 52 46 44 43 38 34 32 30 30 30 30 30 29 28 29 29 27 26 26 29 30 31 31 31 29 28 30 30 30 29 27 28 28 30 31

GFSNGP_prec_cthk_075.txt.gz
RH
78 86 91 91 93 97 91 91 96 84 79 87 81 75 69 66 64 62 64 63 62 63 65 63 62 53 50 50 50 52 50 43 44 46 47 48 46 45 47 48 50 52 52 51
73 76 87 92 93 95 95 89 92 90 88 83 86 83 78 70 66 66 62 64 66 66 64 64 67 73 69 62 55 54 53 52 51 49 49 51 53 52 51 50 53 56 54 54
84 88 94 96 93 96 92 92 90 95 90 86 91 86 81 74 69 67 69 66 65 67 72 72 69 68 66 65 68 69 63 59 58 58 57 54 54 54 55 57 60 58 58 57
87 93 98 89 84 91 94 94 90 90 88 88 90 83 79 77 72 69 66 65 65 66 65 70 70 68 70 68 68 68 74 76 75 73 66 61 60 58 55 57 59 62 64 65
89 96 86 88 92 92 92 97 94 95 93 92 91 83 81 80 73 73 69 68 68 71 71 68 64 65 68 66 65 65 69 75 76 77 76 73 77 74 66 63 64 59 67 71
84 96 97 85 91 90 86 97 94 94 95 92 84 92 90 85 78 74 72 70 68 61 63 67 69 69 68 71 72 70 67 65 69 70 71 72 72 70 78 78 77 76 76 77
77 91 85 85 87 84 97 98 97 93 91 87 86 88 86 82 75 73 70 65 61 54 53 54 57 61 62 67 71 76 78 76 72 69 71 71 72 71 73 76 78 80 87 90
80 81 80 86 91 98 96 95 93 90 89 81 76 72 70 68 62 61 60 57 54 55 57 57 53 49 49 51 53 59 66 69 71 74 77 76 77 78 76 80 83 87 90 88
59 67 83 82 92 92 90 88 86 79 79 78 76 74 70 68 64 57 54 52 52 53 52 49 47 47 47 49 52 51 51 50 53 60 67 69 74 75 77 86 89 89 92 93
72 89 87 86 87 89 88 88 86 81 78 73 71 68 66 64 63 61 52 49 49 50 50 48 45 43 42 42 43 43 43 43 45 46 48 52 62 70 79 84 89 92 95 97
99 98 91 89 91 89 83 84 84 81 77 72 63 60 58 55 54 55 54 51 45 41 41 43 44 46 47 47 48 48 48 47 48 48 47 47 50 56 69 74 79 86 92 92
98 99 97 98 96 90 86 78 75 68 66 63 56 54 53 52 51 49 47 44 44 44 44 44 46 47 48 49 49 49 50 51 54 56 56 57 53 55 57 61 69 79 85 89
98 97 95 93 88 83 79 73 67 61 58 60 58 55 53 51 49 49 47 46 46 46 47 48 49 49 51 52 52 54 54 55 59 62 65 66 66 68 64 70 69 70 77 83
93 95 92 86 86 81 76 69 65 63 58 56 56 58 57 56 56 56 54 54 53 52 53 54 53 54 54 54 56 58 62 62 64 67 68 68 71 76 83 83 76 83 85 86
87 83 80 79 79 77 73 68 66 64 62 60 58 58 57 57 57 57 57 56 56 55 55 56 58 59 61 62 64 66 68 72 73 74 75 78 79 80 82 88 90 89 90 92
88 87 84 81 76 74 73 71 69 69 67 65 64 63 62 61 61 60 59 59 58 58 59 60 61 63 66 67 69 72 75 78 82 86 87 87 91 94 93 95 96 97 96 96
84 82 81 79 78 77 75 73 71 69 66 64 62 62 63 63 62 63 64 65 65 64 64 65 66 68 72 74 79 81 83 87 88 92 92 91 96 96 97 97 97 97 97 97
80 79 79 77 73 69 67 67 67 68 68 68 68 67 68 70 71 72 74 75 76 76 75 74 75 77 79 82 85 91 92 92 93 95 95 95 96 96 96 92 90 87 83 77
72 73 74 74 74 73 74 74 74 73 72 73 75 77 80 81 82 83 84 84 85 86 85 84 82 81 82 85 86 86 86 86 86 83 82 79 76 74 72 69 62 58 53 47
72 73 73 74 73 72 72 73 74 75 77 80 81 81 84 86 86 85 84 84 84 83 81 78 73 70 67 68 66 64 62 61 60 60 59 58 56 55 54 53 50 47 44 42
69 69 69 70 70 71 71 74 75 77 79 79 78 79 81 81 80 77 71 69 68 66 65 63 63 61 59 59 58 55 53 52 51 51 49 47 45 43 41 40 39 38 36 34
72 72 72 72 72 73 75 77 79 81 83 85 88 86 82 81 79 74 69 67 64 62 59 58 58 57 55 51 49 49 48 46 43 42 40 37 34 34 32 31 30 30 31 30
77 80 80 79 77 76 75 75 75 75 72 68 66 66 66 64 61 57 54 53 52 51 51 50 50 50 49 47 44 42 39 37 34 31 30 29 27 26 25 24 22 21 21 21
75 68 63 61 61 61 60 57 53 53 53 51 52 53 53 54 52 49 46 44 44 46 43 42 42 41 39 36 32 29 30 31 27 25 25 25 25 25 25 23 23 22 22 21
57 59 60 61 63 62 59 54 53 51 51 51 49 45 43 42 42 45 44 44 42 39 36 33 30 27 25 23 23 23 22 23 23 22 22 22 24 24 24 25 24 23 23 24
60 60 61 63 63 59 53 50 49 48 46 43 43 40 39 38 36 35 34 32 31 31 30 27 26 25 24 23 23 25 25 25 25 25 25 25 26 26 25 25 25 25 25 26
60 60 56 51 48 45 42 43 42 40 39 37 33 31 31 30 31 32 33 33 33 32 31 31 30 30 31 30 30 29 28 28 28 27 27 26 27 27 27 27 27 28 29 31

GFSNGP_prec_cthk_081.txt.gz
RH
62 56 51 58 70 69 79 82 89 69 85 82 87 92 92 93 90 81 73 70 71 71 74 73 70 72 68 62 61 61 61 60 58 55 52 50 50 51 51 51 52 56 57 57
65 57 54 52 47 57 70 76 82 76 79 90 94 89 96 97 90 86 85 81 80 79 82 82 76 75 72 70 69 69 71 69 71 70 67 63 62 61 61 61 61 58 56 55
67 59 53 50 57 68 82 85 81 81 71 78 97 96 92 98 96 92 94 86 83 84 83 84 83 80 78 77 75 75 74 75 76 78 78 73 72 71 71 72 73 72 72 71
66 58 59 44 55 70 91 91 89 79 73 79 86 97 98 98 96 96 94 89 81 78 80 80 79 76 75 76 77 77 76 79 81 82 81 81 81 80 80 81 81 82 82 83
69 65 41 34 59 90 99 95 93 91 87 85 86 89 98 98 97 96 92 86 79 79 77 78 75 75 75 73 73 75 77 79 79 78 78 79 83 84 84 85 86 86 88 89
67 67 55 43 60 84 87 97 98 89 93 93 94 97 98 98 98 97 93 89 83 81 81 80 78 76 72 71 69 68 72 75 76 77 76 76 77 76 80 85 87 88 90 90
66 67 50 41 69 87 98 98 97 98 97 96 98 98 99 98 98 97 95 92 87 81 77 74 72 71 70 69 66 64 68 69 70 70 72 72 73 75 77 80 80 84 86 88
73 76 61 53 80 97 98 98 98 98 98 98 98 98 97 96 96 92 87 84 83 80 74 70 69 70 66 60 56 56 59 60 60 60 59 58 58 59 61 64 69 75 81 82
81 78 71 76 92 94 98 97 98 98 98 98 97 97 96 92 88 84 83 84 81 76 73 73 66 64 62 60 58 57 57 56 52 50 46 42 41 41 41 44 45 47 49 52
89 82 74 86 91 97 98 98 97 97 96 96 94 94 92 88 83 80 77 74 74 74 72 69 65 61 60 59 59 56 54 52 49 48 46 43 40 38 36 34 34 36 37 39
94 95 93 98 98 98 98 97 96 96 97 96 93 87 88 86 81 75 69 67 64 62 62 63 64 64 64 60 60 55 51 50 48 45 43 42 41 40 41 42 42 42 44 46
97 98 98 98 98 98 98 97 95 92 91 87 83 80 78 76 76 71 69 68 64 59 56 55 55 56 56 57 59 57 54 52 51 49 46 41 41 42 44 46 47 47 48 52
98 98 98 98 97 97 96 95 91 84 78 74 71 70 69 71 72 70 66 63 60 57 56 56 54 51 48 47 47 46 47 47 47 47 47 46 46 46 47 48 50 52 54 55
98 98 97 98 96 94 92 90 88 83 75 71 70 68 65 62 62 62 62 60 58 57 56 53 50 47 45 46 46 45 46 46 47 48 49 50 50 51 53 54 54 54 56 59
98 97 95 93 94 94 91 87 82 80 76 74 72 69 66 65 63 61 61 60 58 56 54 53 52 51 51 50 51 51 51 52 53 53 54 54 55 55 56 57 58 59 63 64
91 87 86 85 86 86 86 85 81 78 76 74 72 71 69 67 65 64 62 62 61 59 58 57 57 57 57 57 58 58 58 59 60 61 61 61 61 62 63 63 64 66 69 72
81 82 80 79 78 77 77 77 76 74 73 71 70 70 70 69 68 68 67 68 67 66 65 64 63 64 64 63 64 65 65 66 68 68 68 69 69 70 70 69 66 65 64 64
75 74 74 72 72 74 74 75 74 75 75 75 74 73 71 71 70 70 70 72 72 70 68 66 64 64 63 64 63 61 61 60 61 60 60 59 60 59 60 59 57 53 48 44
75 74 73 72 71 71 70 69 70 70 69 70 70 70 70 69 70 70 70 69 68 64 60 56 54 53 51 51 51 51 51 53 54 53 54 54 53 52 52 49 47 46 46 45
72 70 69 68 67 66 65 64 64 64 65 65 65 65 66 64 61 57 53 53 51 51 51 50 49 48 49 50 51 52 52 51 51 52 53 53 53 52 50 48 48 48 47 46
67 66 65 64 64 64 64 64 62 60 59 58 57 52 49 48 48 46 45 46 46 45 46 45 44 44 43 42 40 39 39 40 41 42 43 42 43 43 44 44 44 44 43 41
67 67 67 67 65 60 58 57 56 56 53 48 44 41 40 38 36 35 34 32 32 31 33 34 35 35 36 37 37 37 38 39 39 40 39 39 39 38 38 38 39 39 38 37
77 74 64 57 53 50 48 46 44 42 41 39 38 38 39 38 38 35 33 31 30 28 28 28 30 31 32 32 31 31 31 31 32 32 31 30 28 28 27 27 26 24 23 22
51 49 48 49 50 50 50 49 48 46 44 42 40 38 34 32 31 29 28 30 30 29 27 26 26 26 27 27 27 26 24 23 21 20 20 21 21 21 21 21 21 21 21 22
52 52 53 54 55 56 53 49 46 45 44 43 41 39 35 29 26 25 25 26 26 27 28 28 28 27 27 26 26 24 24 24 25 24 24 24 24 24 24 24 24 24 24 24
52 53 54 51 49 46 45 43 40 38 36 36 35 36 33 28 27 27 28 29 30 30 32 33 33 33 32 32 32 31 30 29 29 29 29 29 28 28 27 27 26 26 26 26
51 49 47 46 43 41 38 32 30 31 33 34 34 32 30 29 30 30 31 32 33 34 35 36 36 36 37 37 36 36 35 36 35 34 34 33 31 29 28 28 27 27 27 28

GFSNGP_prec_cthk_084.txt.gz
RH
57 52 55 55 54 51 62 64 76 56 64 63 69 81 82 82 91 86 81 74 74 74 74 72 69 68 64 57 52 49 50 50 50 49 47 47 46 45 45 46 48 51 53 54
55 47 48 54 45 41 45 58 66 63 66 70 69 87 91 89 95 91 86 81 79 79 79 81 82 79 75 74 71 66 64 65 64 63 60 58 57 57 55 54 54 54 54 54
59 44 45 44 49 52 54 58 71 76 69 76 78 88 96 96 97 98 92 87 85 83 86 89 90 87 84 83 83 79 77 75 75 75 75 74 72 71 67 68 69 69 71 72
61 53 53 35 44 52 56 51 68 82 84 88 87 92 98 98 97 96 96 95 92 89 93 95 92 88 90 87 84 81 82 81 81 81 82 83 82 82 80 79 78 80 81 82
67 68 45 31 53 53 55 65 75 83 85 90 92 92 96 98 98 98 99 98 97 97 95 98 95 91 91 87 82 82 82 82 80 80 81 82 83 84 84 84 85 83 84 86
66 67 60 35 44 52 71 88 95 92 87 93 91 93 92 96 97 98 98 98 97 96 93 92 91 85 84 83 80 80 82 82 81 80 84 82 80 82 82 81 82 84 85 87
65 65 58 46 47 54 95 94 97 97 98 98 95 97 98 98 97 99 98 98 96 94 93 91 88 85 81 78 76 77 76 75 71 68 68 73 78 83 85 84 81 80 81 82
75 79 71 63 56 77 97 98 98 98 98 98 98 98 98 98 97 96 98 98 98 97 93 91 88 84 81 77 77 77 73 65 60 59 58 60 62 65 66 66 65 65 63 64
83 83 84 75 70 91 95 98 98 98 98 98 98 98 98 98 96 96 97 96 92 90 92 92 87 84 81 79 74 68 64 63 59 58 56 54 52 50 48 48 47 46 47 48
96 93 89 77 71 94 97 98 98 98 98 98 98 97 97 97 96 93 89 86 85 86 86 82 76 73 69 68 69 69 66 63 59 55 52 48 45 45 44 43 43 43 43 43
98 94 90 87 88 98 98 98 98 98 98 98 97 96 97 96 94 90 85 81 78 74 70 70 72 70 67 66 67 66 64 64 62 59 56 52 48 47 48 50 49 48 47 46
98 98 98 98 98 97 98 97 97 96 95 96 95 94 93 91 90 89 87 83 79 76 72 70 68 66 64 64 62 62 63 63 62 59 56 53 51 51 50 47 45 46 46 45
98 98 98 98 97 97 97 97 96 92 87 82 82 82 82 81 81 81 82 76 73 71 68 68 65 64 63 59 54 54 52 50 50 49 48 48 46 45 45 45 46 47 48 49
98 98 97 97 97 97 96 95 94 92 88 84 81 79 77 75 74 71 69 68 67 67 65 62 60 58 58 58 58 56 54 52 52 52 52 52 50 50 50 50 51 52 53 53
97 97 97 96 95 96 94 91 88 87 86 85 83 81 80 78 76 73 70 68 66 63 60 58 57 57 57 56 55 55 56 56 56 57 57 57 58 57 58 58 57 57 59 59
92 91 89 86 84 85 85 84 84 83 80 77 76 75 75 74 74 73 72 72 70 67 65 64 62 61 60 60 60 60 60 60 62 63 63 63 63 64 64 63 62 62 62 63
81 78 77 75 75 75 75 76 76 76 76 75 75 76 76 76 75 73 72 71 69 67 67 66 65 64 65 65 64 63 63 64 65 65 64 62 62 62 58 55 55 53 50 49
74 73 71 70 70 70 70 71 71 72 72 72 72 72 71 71 70 69 68 67 65 63 59 56 54 53 52 50 51 51 51 51 51 50 50 51 51 49 49 47 45 44 44 44
73 72 70 68 67 67 66 66 66 65 65 65 65 64 64 63 60 56 53 50 47 46 44 43 42 43 43 43 43 44 44 45 45 46 46 45 45 44 45 44 43 42 43 43
70 68 68 66 65 63 61 61 62 60 59 56 53 50 46 43 40 38 36 36 35 36 36 37 38 37 36 37 38 39 40 41 41 41 41 41 41 40 39 38 38 38 38 38
67 64 63 62 62 60 57 55 53 52 51 47 43 40 37 36 34 33 31 30 29 28 29 30 30 30 29 28 29 30 32 34 34 34 34 34 35 35 36 37 38 38 36 35
63 65 67 68 64 58 56 54 50 45 41 38 36 34 34 34 33 32 30 29 28 27 28 27 27 27 27 28 28 27 27 29 30 32 32 32 31 31 30 30 29 28 27 25
76 73 62 52 46 42 41 39 40 41 41 39 38 36 35 33 32 31 29 28 28 26 25 25 25 25 26 26 26 26 26 27 27 27 26 26 24 22 21 21 20 20 20 20
51 48 46 46 46 48 49 48 46 44 43 42 41 38 36 32 27 25 24 24 24 24 23 23 23 22 22 22 23 23 22 22 23 24 23 23 22 23 23 23 23 22 22 22
49 49 50 51 52 51 47 46 44 41 39 37 36 34 33 29 25 24 24 24 25 25 26 27 28 28 27 27 28 28 27 26 26 26 27 27 27 27 27 26 26 25 25 25
51 51 51 49 46 44 40 36 33 34 33 32 31 30 29 27 25 26 26 27 27 28 28 29 30 30 31 32 33 32 32 32 32 32 31 31 32 31 30 30 30 29 29 28
50 49 46 42 39 36 33 30 26 25 26 27 28 29 29 28 28 29 30 31 31 32 33 33 33 33 33 33 33 34 34 34 34 35 35 34 34 34 33 33 32 31 30 29